TimeEST,TemperatureF,Dew PointF,Humidity,Sea Level PressureIn,VisibilityMPH,Wind Direction,Wind SpeedMPH,Gust SpeedMPH,PrecipitationIn,Events,Conditions,WindDirDegrees,DateUTC
12:51 AM,35.1,24.1,64,30.44,10.0,NNW,6.9,-,N/A,,Scattered Clouds,340,2012-11-17 05:51:00
1:51 AM,35.1,24.1,64,30.45,10.0,NNW,4.6,-,N/A,,Scattered Clouds,340,2012-11-17 06:51:00
2:51 AM,35.1,24.1,64,30.45,10.0,NNW,9.2,-,N/A,,Scattered Clouds,340,2012-11-17 07:51:00
3:51 AM,35.1,25.0,67,30.47,10.0,North,8.1,-,N/A,,Scattered Clouds,350,2012-11-17 08:51:00
4:51 AM,36.0,25.0,64,30.50,10.0,North,8.1,-,N/A,,Scattered Clouds,350,2012-11-17 09:51:00
5:51 AM,36.0,26.1,67,30.53,10.0,North,6.9,-,N/A,,Scattered Clouds,350,2012-11-17 10:51:00
6:51 AM,36.0,26.1,67,30.56,10.0,North,9.2,-,N/A,,Scattered Clouds,350,2012-11-17 11:51:00
7:51 AM,37.9,27.0,65,30.58,10.0,North,9.2,-,N/A,,Partly Cloudy,350,2012-11-17 12:51:00
8:51 AM,42.1,28.9,60,30.59,10.0,North,12.7,-,N/A,,Partly Cloudy,360,2012-11-17 13:51:00
9:51 AM,46.0,30.9,56,30.61,10.0,North,11.5,-,N/A,,Partly Cloudy,10,2012-11-17 14:51:00
10:51 AM,48.2,32.0,54,30.60,10.0,NE,11.5,-,N/A,,Partly Cloudy,40,2012-11-17 15:51:00
11:51 AM,48.0,30.9,52,30.59,10.0,NNE,5.8,-,N/A,,Partly Cloudy,20,2012-11-17 16:51:00
12:51 PM,50.0,30.9,48,30.58,10.0,North,10.4,-,N/A,,Partly Cloudy,10,2012-11-17 17:51:00
1:51 PM,50.0,30.0,46,30.58,10.0,NNE,6.9,-,N/A,,Partly Cloudy,20,2012-11-17 18:51:00
2:51 PM,50.0,28.9,44,30.58,10.0,NNE,4.6,-,N/A,,Partly Cloudy,20,2012-11-17 19:51:00
3:51 PM,48.0,28.9,48,30.59,10.0,NNE,3.5,-,N/A,,Partly Cloudy,20,2012-11-17 20:51:00
4:51 PM,44.1,30.0,58,30.61,10.0,ENE,3.5,-,N/A,,Clear,60,2012-11-17 21:51:00
5:51 PM,42.1,32.0,67,30.63,10.0,East,5.8,-,N/A,,Clear,90,2012-11-17 22:51:00
6:51 PM,41.0,32.0,70,30.63,10.0,East,4.6,-,N/A,,Clear,80,2012-11-17 23:51:00
7:51 PM,39.9,32.0,73,30.63,10.0,NNE,4.6,-,N/A,,Clear,30,2012-11-18 00:51:00
8:51 PM,36.0,30.9,82,30.66,8.0,Calm,Calm,-,N/A,,Clear,0,2012-11-18 01:51:00
9:51 PM,35.1,30.0,82,30.66,8.0,Calm,Calm,-,N/A,,Clear,0,2012-11-18 02:51:00
10:51 PM,33.1,28.9,85,30.66,7.0,Calm,Calm,-,N/A,,Clear,0,2012-11-18 03:51:00
11:51 PM,30.9,28.9,92,30.66,8.0,Calm,Calm,-,N/A,,Clear,0,2012-11-18 04:51:00